Regional Weather Roundup
Issued by NWS State College, PA

Home | Current Version | Previous Version | Graphics & Text | Print | Product List | Glossary On
Versions: 1 2 3 4 5 6 7 8 9 10 11 12 13 14 15 16 17 18 19 20 21 22 23 24 25 26 27 28 29 30 31 32 33 34 35 36 37 38 39 40 41 42 43 44 45 46 47 48 49 50
189
ASUS41 KCTP 200503
RWRCTP

REGIONAL WEATHER ROUNDUP
NATIONAL WEATHER SERVICE STATE COLLEGE PA
1200 AM EST FRI JAN 20 2017

Note: "fair" indicates few or no clouds below 12,000 feet with no
significant weather and/or obstructions to visibility.

* = STATION THAT DOES NOT REPORT PRECIPITATION /E.G. RAIN...SNOW...ETC/
    THUNDER OR FOG.

PAZ002>004-007>009-013>016-020>023-029>032-200600-
WESTERN PENNSYLVANIA

CITY           SKY/WX    TMP DP  RH WIND       PRES   REMARKS
ERIE           CLOUDY    30  28  92 CALM      29.91F FOG
MEADVILLE      CLOUDY    33  29  85 CALM      29.90F
FRANKLIN*        N/A     30  28  93 E5        29.92F
NEW CASTLE     FAIR      28  27  96 CALM      29.92F FOG
BEAVER COUNTY  NOT AVBL
BUTLER*        CLOUDY    30  28  93 E5        29.93F
PITTSBURGH INT CLOUDY    34  33  96 CALM      29.90F
PITTSBURGH     CLOUDY    35  31  85 E3        29.90F
INDIANA*       CLEAR     34  32  93 E5        29.94F
LATROBE        CLOUDY    30  30 100 N5        29.91F FOG
WASHINGTON CO* CLOUDY    28  27  93 CALM      29.89F
$$

PAZ004>006-010>012-017>019-024>028-033>037-041-042-045-046-049>053-200600-
CENTRAL PENNSYLVANIA

CITY           SKY/WX    TMP DP  RH WIND       PRES   REMARKS
BRADFORD       FOG       32  32 100 E5        29.91F VSB 1/4
DUBOIS         CLOUDY    31  28  89 E7        29.91F FOG
CLEARFIELD     FOG       28  27  96 N3        29.96S VSB 3/4
JOHNSTOWN      CLOUDY    34  32  92 S3        29.90F
ALTOONA        CLOUDY    31  31 100 CALM      29.96F FOG
STATE COLLEGE  CLOUDY    29  29  97 CALM      29.98S FOG
WILLIAMSPORT   FOG       31  29  92 CALM      30.01S VSB 3/4
SELINSGROVE    CLOUDY    28  27  96 CALM      30.02S
FT INDIANTOWN  CLOUDY    29  29 100 CALM      30.02F
CAPITAL CITY   CLOUDY    32  29  88 CALM      30.03S
HARRISBURG     CLOUDY    33  31  92 E3        30.02F
YORK           CLOUDY    29  29 100 CALM      30.01F FOG
$$

PAZ038>040-043-044-047-048-054-055-060>062-067>071-200600-
EASTERN PENNSYLVANIA

CITY           SKY/WX    TMP DP  RH WIND       PRES   REMARKS
SCRANTON       CLOUDY    35  32  88 CALM      30.00R
MOUNT POCONO   CLOUDY    31  29  92 CALM      29.97R
ALLENTOWN      CLOUDY    32  29  88 N3        30.03S
QUAKERTOWN*    CLOUDY    28  27  93 CALM      30.04S
READING        CLOUDY    32  31  96 CALM      30.02F
LANCASTER      CLOUDY    35  33  92 CALM      30.03S
COATESVILLE      N/A    N/A N/A N/A MISG        N/A
POTTSTOWN      CLOUDY    28  26  92 CALM      30.04F
BLUE BELL      CLOUDY    30  30 100 CALM      30.03S
DOYLESTOWN     CLOUDY    32  30  92 CALM      30.02F
WILLOW GROVE   NOT AVBL
NORTH PHILA    CLOUDY    33  31  92 CALM      30.06S
PHILADELPHIA   PTCLDY    39  34  82 W3        30.05S
$$




USA.gov is the U.S. government's official web portal to all federal, state and local government web resources and services.